Time,TemperatureF,DewpointF,PressureIn,WindDirection,WindDirectionDegrees,WindSpeedMPH,WindSpeedGustMPH,Humidity,HourlyPrecipIn,Conditions,Clouds,dailyrainin,SoftwareType,DateUTC
2013-03-25 00:02:00,-1.0,-7.0,-100.00,WSW,241,5.0,9.0,76,0.00,,,0.00,,2013-03-25 06:02:00,
2013-03-25 00:12:00,-1.0,-7.0,-100.00,WSW,241,5.0,9.0,76,0.00,,,0.00,,2013-03-25 06:12:00,
2013-03-25 00:22:00,-1.0,-7.0,-100.00,WSW,241,5.0,9.0,76,0.00,,,0.00,,2013-03-25 06:22:00,
2013-03-25 00:52:00,-1.0,-7.0,-100.00,WSW,251,7.0,12.0,75,0.00,,,0.00,,2013-03-25 06:52:00,
2013-03-25 01:02:00,-1.0,-7.0,-100.00,WSW,251,7.0,12.0,75,0.00,,,0.00,,2013-03-25 07:02:00,
2013-03-25 01:12:00,-1.0,-7.0,-100.00,WSW,251,7.0,12.0,75,0.00,,,0.00,,2013-03-25 07:12:00,
2013-03-25 01:22:00,-1.0,-7.0,-100.00,WSW,251,7.0,12.0,75,0.00,,,0.00,,2013-03-25 07:22:00,
2013-03-25 01:53:00,-1.0,-7.0,-100.00,WSW,252,7.0,11.0,75,0.00,,,0.00,,2013-03-25 07:53:00,
2013-03-25 02:02:00,-1.0,-7.0,-100.00,WSW,252,7.0,11.0,75,0.00,,,0.00,,2013-03-25 08:02:00,
2013-03-25 02:12:00,-1.0,-7.0,-100.00,WSW,252,7.0,11.0,75,0.00,,,0.00,,2013-03-25 08:12:00,
2013-03-25 02:22:00,-1.0,-7.0,-100.00,WSW,252,7.0,11.0,75,0.00,,,0.00,,2013-03-25 08:22:00,
2013-03-25 02:52:00,-1.0,-7.0,-100.00,WSW,247,8.0,12.0,74,0.00,,,0.00,,2013-03-25 08:52:00,
2013-03-25 03:02:00,-1.0,-7.0,-100.00,WSW,247,8.0,12.0,74,0.00,,,0.00,,2013-03-25 09:02:00,
2013-03-25 03:12:00,-1.0,-7.0,-100.00,WSW,247,8.0,12.0,74,0.00,,,0.00,,2013-03-25 09:12:00,
2013-03-25 03:22:00,-1.0,-7.0,-100.00,WSW,247,8.0,12.0,74,0.00,,,0.00,,2013-03-25 09:22:00,
2013-03-25 03:53:00,-1.0,-7.0,-100.00,WSW,243,5.0,11.0,75,0.00,,,0.00,,2013-03-25 09:53:00,
2013-03-25 04:03:00,-1.0,-7.0,-100.00,WSW,243,5.0,11.0,75,0.00,,,0.00,,2013-03-25 10:03:00,
2013-03-25 04:12:00,-1.0,-7.0,-100.00,WSW,243,5.0,11.0,75,0.00,,,0.00,,2013-03-25 10:12:00,
2013-03-25 04:22:00,-1.0,-7.0,-100.00,WSW,243,5.0,11.0,75,0.00,,,0.00,,2013-03-25 10:22:00,
2013-03-25 04:54:00,0.0,-6.0,-100.00,WSW,248,5.0,9.0,76,0.00,,,0.00,,2013-03-25 10:54:00,
2013-03-25 05:03:00,0.0,-6.0,-100.00,WSW,248,5.0,9.0,76,0.00,,,0.00,,2013-03-25 11:03:00,
2013-03-25 05:12:00,0.0,-6.0,-100.00,WSW,248,5.0,9.0,76,0.00,,,0.00,,2013-03-25 11:12:00,
2013-03-25 05:23:00,0.0,-6.0,-100.00,WSW,248,5.0,9.0,76,0.00,,,0.00,,2013-03-25 11:23:00,
2013-03-25 05:53:00,0.0,-6.0,-100.00,WSW,240,4.0,9.0,76,0.00,,,0.00,,2013-03-25 11:53:00,
2013-03-25 06:02:00,0.0,-6.0,-100.00,WSW,240,4.0,9.0,76,0.00,,,0.00,,2013-03-25 12:02:00,
2013-03-25 06:13:00,0.0,-6.0,-100.00,WSW,240,4.0,9.0,76,0.00,,,0.00,,2013-03-25 12:13:00,
2013-03-25 06:23:00,0.0,-6.0,-100.00,WSW,240,4.0,9.0,76,0.00,,,0.00,,2013-03-25 12:23:00,
2013-03-25 06:53:00,0.0,-5.0,-100.00,WSW,238,4.0,7.0,77,0.00,,,0.00,,2013-03-25 12:53:00,
2013-03-25 07:02:00,0.0,-5.0,-100.00,WSW,238,4.0,7.0,77,0.00,,,0.00,,2013-03-25 13:02:00,
2013-03-25 07:13:00,0.0,-5.0,-100.00,WSW,238,4.0,7.0,77,0.00,,,0.00,,2013-03-25 13:13:00,
2013-03-25 07:22:00,0.0,-5.0,-100.00,WSW,238,4.0,7.0,77,0.00,,,0.00,,2013-03-25 13:22:00,
2013-03-25 07:52:00,0.0,-6.0,-100.00,SW,225,4.0,8.0,76,0.00,,,0.00,,2013-03-25 13:52:00,
2013-03-25 08:03:00,0.0,-6.0,-100.00,SW,225,4.0,8.0,76,0.00,,,0.00,,2013-03-25 14:03:00,
2013-03-25 08:12:00,0.0,-6.0,-100.00,SW,225,4.0,8.0,76,0.00,,,0.00,,2013-03-25 14:12:00,
2013-03-25 08:22:00,0.0,-6.0,-100.00,SW,225,4.0,8.0,76,0.00,,,0.00,,2013-03-25 14:22:00,
2013-03-25 08:53:00,5.0,-1.0,-100.00,WSW,255,2.0,6.0,74,0.00,,,0.00,,2013-03-25 14:53:00,
2013-03-25 09:02:00,5.0,-1.0,-100.00,WSW,255,2.0,6.0,74,0.00,,,0.00,,2013-03-25 15:02:00,
2013-03-25 09:13:00,5.0,-1.0,-100.00,WSW,255,2.0,6.0,74,0.00,,,0.00,,2013-03-25 15:13:00,
2013-03-25 09:23:00,5.0,-1.0,-100.00,WSW,255,2.0,6.0,74,0.00,,,0.00,,2013-03-25 15:23:00,
2013-03-25 09:53:00,8.0,0.0,-100.00,NW,322,5.0,12.0,69,0.00,,,0.00,,2013-03-25 15:53:00,
2013-03-25 10:03:00,8.0,0.0,-100.00,NW,322,5.0,12.0,69,0.00,,,0.00,,2013-03-25 16:03:00,
2013-03-25 10:12:00,8.0,0.0,-100.00,NW,322,5.0,12.0,69,0.00,,,0.00,,2013-03-25 16:12:00,
2013-03-25 10:23:00,8.0,0.0,-100.00,NW,322,5.0,12.0,69,0.00,,,0.00,,2013-03-25 16:23:00,
2013-03-25 10:53:00,11.0,2.0,-100.00,West,272,6.0,10.0,67,0.00,,,0.00,,2013-03-25 16:53:00,
2013-03-25 11:02:00,11.0,2.0,-100.00,West,272,6.0,10.0,67,0.00,,,0.00,,2013-03-25 17:02:00,
2013-03-25 11:12:00,11.0,2.0,-100.00,West,272,6.0,10.0,67,0.00,,,0.00,,2013-03-25 17:12:00,
2013-03-25 11:23:00,11.0,2.0,-100.00,West,272,6.0,10.0,67,0.00,,,0.00,,2013-03-25 17:23:00,
2013-03-25 11:53:00,12.0,2.0,-100.00,WSW,243,9.0,15.0,63,0.00,,,0.00,,2013-03-25 17:53:00,
2013-03-25 12:03:00,12.0,2.0,-100.00,WSW,243,9.0,15.0,63,0.00,,,0.00,,2013-03-25 18:03:00,
2013-03-25 12:12:00,12.0,2.0,-100.00,WSW,243,9.0,15.0,63,0.00,,,0.00,,2013-03-25 18:12:00,
2013-03-25 12:23:00,12.0,2.0,-100.00,WSW,243,9.0,15.0,63,0.00,,,0.00,,2013-03-25 18:23:00,
2013-03-25 12:53:00,15.0,4.0,-100.00,WSW,253,5.0,12.0,62,0.00,,,0.00,,2013-03-25 18:53:00,
2013-03-25 13:03:00,15.0,4.0,-100.00,WSW,253,5.0,12.0,62,0.00,,,0.00,,2013-03-25 19:03:00,
2013-03-25 13:12:00,15.0,4.0,-100.00,WSW,253,5.0,12.0,62,0.00,,,0.00,,2013-03-25 19:12:00,
2013-03-25 13:23:00,15.0,4.0,-100.00,WSW,253,5.0,12.0,62,0.00,,,0.00,,2013-03-25 19:23:00,
2013-03-25 13:53:00,17.0,4.0,-100.00,WNW,283,6.0,14.0,57,0.00,,,0.00,,2013-03-25 19:53:00,
2013-03-25 14:02:00,17.0,4.0,-100.00,WNW,283,6.0,14.0,57,0.00,,,0.00,,2013-03-25 20:02:00,
2013-03-25 14:12:00,17.0,4.0,-100.00,WNW,283,6.0,14.0,57,0.00,,,0.00,,2013-03-25 20:12:00,
2013-03-25 14:22:00,17.0,4.0,-100.00,WNW,283,6.0,14.0,57,0.00,,,0.00,,2013-03-25 20:22:00,
2013-03-25 14:52:00,18.0,3.0,-100.00,West,263,8.0,14.0,50,0.01,,,0.01,,2013-03-25 20:52:00,
2013-03-25 15:02:00,18.0,3.0,-100.00,West,263,8.0,14.0,50,0.01,,,0.01,,2013-03-25 21:02:00,
2013-03-25 15:12:00,18.0,3.0,-100.00,West,263,8.0,14.0,50,0.01,,,0.01,,2013-03-25 21:12:00,
2013-03-25 15:22:00,18.0,3.0,-100.00,West,263,8.0,14.0,50,0.01,,,0.01,,2013-03-25 21:22:00,
2013-03-25 15:52:00,18.0,0.0,-100.00,West,279,10.0,15.0,45,0.00,,,0.01,,2013-03-25 21:52:00,
2013-03-25 16:03:00,18.0,0.0,-100.00,West,279,10.0,15.0,45,0.00,,,0.01,,2013-03-25 22:03:00,
2013-03-25 16:12:00,18.0,0.0,-100.00,West,279,10.0,15.0,45,0.00,,,0.01,,2013-03-25 22:12:00,
2013-03-25 16:23:00,18.0,0.0,-100.00,West,279,10.0,15.0,45,0.00,,,0.01,,2013-03-25 22:23:00,
2013-03-25 16:52:00,20.0,0.0,-100.00,WNW,285,7.0,14.0,40,0.00,,,0.01,,2013-03-25 22:52:00,
2013-03-25 17:03:00,20.0,0.0,-100.00,WNW,285,7.0,14.0,40,0.00,,,0.01,,2013-03-25 23:03:00,
2013-03-25 17:12:00,20.0,0.0,-100.00,WNW,285,7.0,14.0,40,0.00,,,0.01,,2013-03-25 23:12:00,
2013-03-25 17:23:00,20.0,0.0,-100.00,WNW,285,7.0,14.0,40,0.00,,,0.01,,2013-03-25 23:23:00,
2013-03-25 17:53:00,20.0,-2.0,-100.00,WSW,257,6.0,14.0,37,0.00,,,0.01,,2013-03-25 23:53:00,
2013-03-25 18:02:00,20.0,-2.0,-100.00,WSW,257,6.0,14.0,37,0.00,,,0.01,,2013-03-26 00:02:00,
2013-03-25 18:12:00,20.0,-2.0,-100.00,WSW,257,6.0,14.0,37,0.00,,,0.01,,2013-03-26 00:12:00,
2013-03-25 18:22:00,20.0,-2.0,-100.00,WSW,257,6.0,14.0,37,0.00,,,0.01,,2013-03-26 00:22:00,
2013-03-25 18:52:00,18.0,-4.0,-100.00,WNW,285,8.0,12.0,36,0.00,,,0.01,,2013-03-26 00:52:00,
2013-03-25 19:02:00,18.0,-4.0,-100.00,WNW,285,8.0,12.0,36,0.00,,,0.01,,2013-03-26 01:02:00,
2013-03-25 19:12:00,18.0,-4.0,-100.00,WNW,285,8.0,12.0,36,0.00,,,0.01,,2013-03-26 01:12:00,
2013-03-25 19:22:00,18.0,-4.0,-100.00,WNW,285,8.0,12.0,36,0.00,,,0.01,,2013-03-26 01:22:00,
2013-03-25 19:52:00,14.0,-8.0,-100.00,WSW,254,5.0,12.0,36,0.00,,,0.01,,2013-03-26 01:52:00,
2013-03-25 20:02:00,14.0,-8.0,-100.00,WSW,254,5.0,12.0,36,0.00,,,0.01,,2013-03-26 02:02:00,
2013-03-25 20:12:00,14.0,-8.0,-100.00,WSW,254,5.0,12.0,36,0.00,,,0.01,,2013-03-26 02:12:00,
2013-03-25 20:22:00,14.0,-8.0,-100.00,WSW,254,5.0,12.0,36,0.00,,,0.01,,2013-03-26 02:22:00,
2013-03-25 20:52:00,13.0,-9.0,-100.00,SW,235,4.0,5.0,36,0.00,,,0.01,,2013-03-26 02:52:00,
2013-03-25 21:02:00,13.0,-9.0,-100.00,SW,235,4.0,5.0,36,0.00,,,0.01,,2013-03-26 03:02:00,
2013-03-25 21:12:00,13.0,-9.0,-100.00,SW,235,4.0,5.0,36,0.00,,,0.01,,2013-03-26 03:12:00,
2013-03-25 21:22:00,13.0,-9.0,-100.00,SW,235,4.0,5.0,36,0.00,,,0.01,,2013-03-26 03:22:00,
2013-03-25 21:53:00,12.0,-11.0,-100.00,SW,233,7.0,15.0,34,0.00,,,0.01,,2013-03-26 03:53:00,
2013-03-25 22:03:00,12.0,-11.0,-100.00,SW,233,7.0,15.0,34,0.00,,,0.01,,2013-03-26 04:03:00,
2013-03-25 22:12:00,12.0,-11.0,-100.00,SW,233,7.0,15.0,34,0.00,,,0.01,,2013-03-26 04:12:00,
2013-03-25 22:23:00,12.0,-11.0,-100.00,SW,233,7.0,15.0,34,0.00,,,0.01,,2013-03-26 04:23:00,
2013-03-25 22:53:00,12.0,-10.0,-100.00,SW,220,7.0,11.0,36,0.00,,,0.01,,2013-03-26 04:53:00,
2013-03-25 23:02:00,12.0,-10.0,-100.00,SW,220,7.0,11.0,36,0.00,,,0.01,,2013-03-26 05:02:00,
2013-03-25 23:12:00,12.0,-10.0,-100.00,SW,220,7.0,11.0,36,0.00,,,0.01,,2013-03-26 05:12:00,
2013-03-25 23:22:00,12.0,-10.0,-100.00,SW,220,7.0,11.0,36,0.00,,,0.01,,2013-03-26 05:22:00,
2013-03-25 23:52:00,11.0,-10.0,-100.00,SSW,208,5.0,9.0,37,0.00,,,0.01,,2013-03-26 05:52:00,